• en France
  • Liste des pays
  • À 7 jours
  • Température de l'eau
  • Carte satellitaire
  • Carte météo
  • Widgets météo
  • user-avatar
    Se connecter

    Météo par heure à Dinajpur

    Ce jour, 23 Septembre, Samedi

    Heure Température Précipitation Vent Pression Humidité
    00:00 +30°C° 0 mm 1 m/s 752 mmHg 81%
    01:00 +30°C° 2,6 mm 2 m/s 752 mmHg 83%
    02:00 +29°C° 2,6 mm 2 m/s 752 mmHg 85%
    03:00 +29°C° 2,6 mm 2 m/s 752 mmHg 86%
    04:00 +29°C° 2,6 mm 2 m/s 752 mmHg 87%
    05:00 +29°C° 2,6 mm 2 m/s 752 mmHg 87%
    06:00 +29°C° 2,6 mm 2 m/s 752 mmHg 88%
    07:00 +30°C° 1,5 mm 3 m/s 752 mmHg 84%
    08:00 +31°C° 1,5 mm 3 m/s 753 mmHg 80%
    09:00 +33°C° 1,5 mm 3 m/s 753 mmHg 76%
    10:00 +34°C° 1 mm 3 m/s 753 mmHg 71%
    11:00 +35°C° 1 mm 2 m/s 753 mmHg 67%
    12:00 +36°C° 1 mm 2 m/s 753 mmHg 62%
    13:00 +36°C° 0,2 mm 2 m/s 752 mmHg 61%
    14:00 +35°C° 0,2 mm 1 m/s 751 mmHg 60%
    15:00 +35°C° 0,2 mm 1 m/s 751 mmHg 59%
    16:00 +35°C° 0 mm 1 m/s 751 mmHg 63%
    17:00 +32°C° 0 mm 0 m/s 750 mmHg 66%
    18:00 +31°C° 0 mm 0 m/s 750 mmHg 70%
    19:00 +31°C° 0 mm 0 m/s 751 mmHg 71%
    20:00 +30°C° 0 mm 0 m/s 751 mmHg 71%
    21:00 +30°C° 0 mm 0 m/s 752 mmHg 72%
    22:00 +30°C° 0 mm 0 m/s 752 mmHg 74%
    23:00 +31°C° 0 mm 1 m/s 752 mmHg 75%

    Demain, 24 Septembre, Dimanche

    Heure Température Précipitation Vent Pression Humidité
    00:00 +31°C° 0 mm 1 m/s 752 mmHg 76%
    01:00 +31°C° 0,7 mm 1 m/s 751 mmHg 78%
    02:00 +30°C° 0,7 mm 1 m/s 751 mmHg 80%
    03:00 +30°C° 0,7 mm 1 m/s 751 mmHg 82%
    04:00 +30°C° 0 mm 1 m/s 751 mmHg 83%
    05:00 +30°C° 0 mm 1 m/s 751 mmHg 84%
    06:00 +29°C° 0 mm 1 m/s 751 mmHg 84%
    07:00 +31°C° 0,1 mm 1 m/s 752 mmHg 80%
    08:00 +32°C° 0,1 mm 1 m/s 752 mmHg 76%
    09:00 +33°C° 0,1 mm 1 m/s 753 mmHg 71%
    10:00 +34°C° 0,5 mm 1 m/s 753 mmHg 67%
    11:00 +35°C° 0,5 mm 1 m/s 752 mmHg 62%
    12:00 +36°C° 0,5 mm 1 m/s 752 mmHg 58%
    13:00 +36°C° 0,3 mm 1 m/s 751 mmHg 57%
    14:00 +36°C° 0,3 mm 1 m/s 750 mmHg 57%
    15:00 +36°C° 0,3 mm 1 m/s 750 mmHg 56%
    16:00 +35°C° 0,4 mm 1 m/s 749 mmHg 60%
    17:00 +34°C° 0,4 mm 1 m/s 749 mmHg 65%
    18:00 +33°C° 0,4 mm 1 m/s 749 mmHg 69%
    19:00 +33°C° 0,2 mm 1 m/s 750 mmHg 71%
    20:00 +33°C° 0,2 mm 1 m/s 751 mmHg 72%
    21:00 +32°C° 0,2 mm 1 m/s 751 mmHg 73%
    22:00 +32°C° 0,4 mm 1 m/s 751 mmHg 75%
    23:00 +32°C° 0,4 mm 1 m/s 751 mmHg 77%

    Après-demain, 25 Septembre, Lundi

    Heure Température Précipitation Vent Pression Humidité
    00:00 +31°C° 0,4 mm 1 m/s 751 mmHg 78%
    01:00 +31°C° 1 mm 1 m/s 750 mmHg 79%
    02:00 +31°C° 1 mm 1 m/s 750 mmHg 80%
    03:00 +30°C° 1 mm 1 m/s 750 mmHg 81%
    04:00 +30°C° 0,1 mm 1 m/s 750 mmHg 81%
    05:00 +30°C° 0,1 mm 1 m/s 750 mmHg 81%
    06:00 +30°C° 0,1 mm 1 m/s 750 mmHg 81%
    07:00 +31°C° 0,5 mm 1 m/s 751 mmHg 78%
    08:00 +32°C° 0,5 mm 1 m/s 751 mmHg 74%
    09:00 +33°C° 0,5 mm 1 m/s 752 mmHg 70%
    10:00 +34°C° 0,6 mm 1 m/s 752 mmHg 66%
    11:00 +33°C° 0,6 mm 0 m/s 751 mmHg 62%
    12:00 +34°C° 0,6 mm 0 m/s 751 mmHg 58%
    13:00 +34°C° 0,1 mm 0 m/s 750 mmHg 57%
    14:00 +34°C° 0,1 mm 0 m/s 749 mmHg 57%
    15:00 +34°C° 0,1 mm 0 m/s 748 mmHg 56%
    16:00 +33°C° 0,1 mm 0 m/s 748 mmHg 60%
    17:00 +32°C° 0,1 mm 0 m/s 748 mmHg 63%
    18:00 +32°C° 0,1 mm 0 m/s 748 mmHg 67%
    19:00 +31°C° 0,1 mm 0 m/s 749 mmHg 68%
    20:00 +31°C° 0,1 mm 0 m/s 750 mmHg 69%
    21:00 +31°C° 0,1 mm 0 m/s 750 mmHg 69%
    22:00 +30°C° 0,5 mm 0 m/s 750 mmHg 71%
    23:00 +30°C° 0,5 mm 0 m/s 750 mmHg 73%

    26 Septembre, Mardi

    Heure Température Précipitation Vent Pression Humidité
    00:00 +29°C° 0,5 mm 0 m/s 750 mmHg 75%
    01:00 +29°C° 1,2 mm 0 m/s 750 mmHg 76%
    02:00 +31°C° 1,2 mm 1 m/s 749 mmHg 77%
    03:00 +31°C° 1,2 mm 1 m/s 749 mmHg 78%
    04:00 +31°C° 0 mm 1 m/s 749 mmHg 79%
    05:00 +30°C° 0 mm 1 m/s 750 mmHg 80%
    06:00 +30°C° 0 mm 1 m/s 750 mmHg 81%
    07:00 +31°C° 0,1 mm 1 m/s 750 mmHg 78%
    08:00 +32°C° 0,1 mm 1 m/s 751 mmHg 75%
    09:00 +33°C° 0,1 mm 1 m/s 752 mmHg 72%
    10:00 +34°C° 0,3 mm 1 m/s 751 mmHg 68%
    11:00 +35°C° 0,3 mm 1 m/s 751 mmHg 64%
    12:00 +35°C° 0,3 mm 1 m/s 751 mmHg 60%
    13:00 +36°C° 0 mm 1 m/s 750 mmHg 59%
    14:00 +36°C° 0 mm 1 m/s 749 mmHg 58%
    15:00 +36°C° 0 mm 1 m/s 749 mmHg 57%
    16:00 +35°C° 0 mm 1 m/s 749 mmHg 60%
    17:00 +34°C° 0 mm 1 m/s 749 mmHg 64%
    18:00 +33°C° 0 mm 1 m/s 749 mmHg 67%
    19:00 +33°C° 0 mm 1 m/s 750 mmHg 68%
    20:00 +33°C° 0 mm 1 m/s 750 mmHg 69%
    21:00 +32°C° 0 mm 1 m/s 751 mmHg 70%
    22:00 +32°C° 0 mm 1 m/s 751 mmHg 70%
    23:00 +32°C° 0 mm 1 m/s 751 mmHg 71%

    27 Septembre, Mercredi

    Heure Température Précipitation Vent Pression Humidité
    00:00 +30°C° 0 mm 0 m/s 750 mmHg 72%
    01:00 +31°C° 0,1 mm 1 m/s 750 mmHg 74%
    02:00 +31°C° 0,1 mm 1 m/s 750 mmHg 75%
    03:00 +31°C° 0,1 mm 1 m/s 750 mmHg 77%
    04:00 +29°C° 0,2 mm 0 m/s 750 mmHg 78%
    05:00 +28°C° 0,2 mm 0 m/s 750 mmHg 79%
    06:00 +28°C° 0,2 mm 0 m/s 750 mmHg 80%
    07:00 +29°C° 0,4 mm 0 m/s 751 mmHg 76%
    08:00 +32°C° 0,4 mm 1 m/s 752 mmHg 73%
    09:00 +34°C° 0,4 mm 1 m/s 752 mmHg 69%
    10:00 +34°C° 1,1 mm 1 m/s 752 mmHg 65%
    11:00 +35°C° 1,1 mm 1 m/s 752 mmHg 62%
    12:00 +36°C° 1,1 mm 1 m/s 751 mmHg 58%
    13:00 +36°C° 0,2 mm 1 m/s 750 mmHg 58%
    14:00 +36°C° 0,2 mm 1 m/s 750 mmHg 58%
    15:00 +36°C° 0,2 mm 1 m/s 749 mmHg 58%
    16:00 +35°C° 0 mm 1 m/s 749 mmHg 62%
    17:00 +34°C° 0 mm 1 m/s 749 mmHg 65%
    18:00 +34°C° 0 mm 2 m/s 750 mmHg 69%
    19:00 +33°C° 0 mm 1 m/s 750 mmHg 70%
    20:00 +32°C° 0 mm 1 m/s 751 mmHg 71%
    21:00 +32°C° 0 mm 1 m/s 751 mmHg 73%
    22:00 +31°C° 0,1 mm 1 m/s 751 mmHg 74%
    23:00 +31°C° 0,1 mm 1 m/s 751 mmHg 75%

    28 Septembre, Jeudi

    Heure Température Précipitation Vent Pression Humidité
    00:00 +31°C° 0,1 mm 1 m/s 751 mmHg 77%
    01:00 +31°C° 1 mm 1 m/s 750 mmHg 79%
    02:00 +30°C° 1 mm 1 m/s 750 mmHg 81%
    03:00 +30°C° 1 mm 1 m/s 750 mmHg 83%
    04:00 +30°C° 1,1 mm 1 m/s 750 mmHg 83%
    05:00 +30°C° 1,1 mm 1 m/s 750 mmHg 84%
    06:00 +30°C° 1,1 mm 1 m/s 751 mmHg 85%
    07:00 +30°C° 0,6 mm 1 m/s 751 mmHg 82%
    08:00 +31°C° 0,6 mm 1 m/s 752 mmHg 78%
    09:00 +32°C° 0,6 mm 1 m/s 752 mmHg 75%
    10:00 +33°C° 0,6 mm 1 m/s 752 mmHg 71%
    11:00 +34°C° 0,6 mm 1 m/s 752 mmHg 66%
    12:00 +35°C° 0,6 mm 2 m/s 751 mmHg 62%
    13:00 +36°C° 0 mm 2 m/s 751 mmHg 61%
    14:00 +36°C° 0 mm 2 m/s 750 mmHg 61%
    15:00 +36°C° 0 mm 2 m/s 749 mmHg 60%
    16:00 +35°C° 0 mm 2 m/s 749 mmHg 64%
    17:00 +34°C° 0 mm 2 m/s 750 mmHg 68%
    18:00 +32°C° 0 mm 2 m/s 750 mmHg 72%
    19:00 +31°C° 0 mm 2 m/s 750 mmHg 74%
    20:00 +31°C° 0 mm 2 m/s 751 mmHg 76%
    21:00 +30°C° 0 mm 2 m/s 751 mmHg 78%
    22:00 +30°C° 1,7 mm 2 m/s 751 mmHg 81%
    23:00 +30°C° 1,7 mm 2 m/s 751 mmHg 83%
    Voir plus